Location: Unspecified
(51.0000°N, 12.0000°E)
Time: 09:54:05
(UTC+01:00)

XW-2F - Visible Passes

Search period start: 21 February 2019 00:00
Search period end: 03 March 2019 00:00
Orbit: 505 x 524 km, 97.5° (Epoch: 21 February)

Date Brightness Start Highest point End Pass type
(mag) Time Alt. Az. Time Alt. Az. Time Alt. Az.
21 Feb ? 06:07:01 10° NNE 06:10:43 46° E 06:14:22 10° S visible
21 Feb ? 18:26:56 10° SW 18:29:38 18° W 18:32:21 10° NW visible
22 Feb ? 05:52:04 10° NNE 05:55:32 32° E 05:58:56 10° SSE visible
22 Feb ? 18:11:10 10° SSW 18:14:23 25° W 18:17:38 10° NW visible
23 Feb ? 05:37:14 10° NE 05:40:18 23° E 05:43:21 10° SSE visible
24 Feb ? 05:22:36 10° NE 05:25:03 16° E 05:27:29 10° SE visible
25 Feb ? 05:08:26 10° ENE 05:09:45 11° E 05:11:05 10° ESE visible
26 Feb ? 06:25:23 10° NNE 06:29:12 75° ESE 06:32:56 10° S visible
26 Feb ? 18:46:45 10° WSW 18:48:16 12° W 18:49:48 10° WNW visible
27 Feb ? 06:10:20 10° NNE 06:14:02 51° E 06:17:41 10° S visible
27 Feb ? 18:30:26 10° SW 18:32:59 17° W 18:35:32 10° NW visible
28 Feb ? 05:55:21 10° NNE 05:58:51 35° E 06:02:17 10° SSE visible
01 Mar ? 05:40:28 10° NE 05:43:38 24° E 05:46:44 10° SSE visible
02 Mar ? 05:25:46 10° NE 05:28:21 17° E 05:30:55 10° SE visible
